KY4GW Weather Reports


time (UTC)temp
C
wind
direction
speed
KPH
gust
KPH
rain 1hr
cm
rain 24hr
cm
rain mn
cm
humidity
%
barometer
mb
20260505130141 18 222 0.0 0.0 0.00 0.00 0.00 64 1013.8
20260505124631 19 222 0.0 0.0 0.00 0.00 0.00 63 1014.1
20260505124128 19 222 0.0 0.0 0.00 0.00 0.00 65 1013.8
20260505123623 19 222 0.0 0.0 0.00 0.00 0.00 63 1013.8
20260505123120 18 218 0.0 0.0 0.00 0.00 0.00 65 1013.8
20260505122617 18 218 0.0 0.0 0.00 0.00 0.00 65 1013.8
20260505122114 18 167 0.0 0.0 0.00 0.00 0.00 69 1013.8
20260505121605 18 180 0.0 0.0 0.00 0.00 0.00 68 1013.8
20260505121102 18 148 0.0 0.0 0.00 0.00 0.00 68 1013.8
20260505120558 18 148 0.0 0.0 0.00 0.00 0.00 68 1013.8
20260505120054 17 116 0.0 0.0 0.00 0.00 0.00 70 1013.8
20260505115548 17 66 0.0 0.0 0.00 0.00 0.00 72 1013.8
20260505115046 16 66 0.0 0.0 0.00 0.00 0.00 73 1013.8
20260505114543 16 66 0.0 0.0 0.00 0.00 0.00 73 1013.8
20260505114039 15 185 0.0 0.0 0.00 0.00 0.00 75 1013.8
20260505113536 15 200 0.0 0.0 0.00 0.00 0.00 74 1013.8
20260505113032 15 204 0.0 0.0 0.00 0.00 0.00 76 1014.1
20260505112528 15 204 0.0 0.0 0.00 0.00 0.00 78 1014.1
20260505112027 15 132 0.0 0.0 0.00 0.00 0.00 76 1014.1
20260505111526 15 258 0.0 0.0 0.00 0.00 0.00 73 1013.8
20260505111023 15 246 0.0 0.0 0.00 0.00 0.00 77 1013.8
20260505110519 15 264 3.2 3.2 0.00 0.00 0.00 73 1013.8
20260505101952 14 174 0.0 0.0 0.00 0.00 0.00 76 1012.8
20260505101450 14 216 0.0 0.0 0.00 0.00 0.00 75 1012.4
20260505100946 15 222 0.0 0.0 0.00 0.00 0.00 75 1012.4
20260505100443 15 206 0.0 0.0 0.00 0.00 0.00 74 1012.4
20260505095939 15 257 0.0 0.0 0.00 0.00 0.00 73 1012.4
20260505095436 15 182 0.0 0.0 0.00 0.00 0.00 72 1012.4
20260505094932 15 258 1.6 1.6 0.00 0.00 0.00 73 1012.4
20260505094429 15 225 0.0 0.0 0.00 0.00 0.00 72 1012.4
20260505093925 15 199 0.0 0.0 0.00 0.00 0.00 73 1012.4
20260505093422 15 218 0.0 0.0 0.00 0.00 0.00 72 1012.4
20260505092919 15 294 0.0 0.0 0.00 0.00 0.00 71 1012.1
20260505092417 16 230 1.6 1.6 0.00 0.00 0.00 70 1012.1
20260505091915 16 12 0.0 0.0 0.00 0.00 0.00 70 1012.1
20260505091412 16 192 0.0 0.0 0.00 0.00 0.00 69 1012.1
20260505090910 16 211 0.0 0.0 0.00 0.00 0.00 70 1012.1
20260505090408 16 204 0.0 0.0 0.00 0.00 0.00 69 1012.1
20260505085905 16 216 3.2 3.2 0.00 0.00 0.00 67 1012.1
20260505085403 16 194 3.2 3.2 0.00 0.00 0.00 66 1012.1
20260505084901 16 204 1.6 1.6 0.00 0.00 0.00 66 1012.1
20260505084359 16 213 0.0 0.0 0.00 0.00 0.00 66 1012.1
20260505083856 16 166 3.2 3.2 0.00 0.00 0.00 67 1012.1
20260505083354 16 222 3.2 3.2 0.00 0.00 0.00 66 1012.1
20260505082850 16 216 3.2 3.2 0.00 0.00 0.00 65 1011.3
20260505082346 17 216 1.6 1.6 0.00 0.00 0.00 64 1011.3
20260505081843 17 228 3.2 3.2 0.00 0.00 0.00 65 1011.3
20260505081339 17 151 4.8 4.8 0.00 0.00 0.00 66 1011.3
20260505080836 17 204 3.2 3.2 0.00 0.00 0.00 65 1011.3
20260505080332 17 228 3.2 3.2 0.00 0.00 0.00 64 1011.3
20260505075827 17 204 3.2 3.2 0.00 0.00 0.00 64 1011.6
20260505075325 17 210 0.0 0.0 0.00 0.00 0.00 65 1011.6
20260505074822 16 222 3.2 3.2 0.00 0.00 0.00 64 1011.6
20260505074319 16 184 1.6 1.6 0.00 0.00 0.00 69 1011.6
20260505073816 16 228 1.6 1.6 0.00 0.00 0.00 66 1011.6
20260505073314 16 234 3.2 3.2 0.00 0.00 0.00 67 1011.6
20260505072811 16 234 3.2 3.2 0.00 0.00 0.00 68 1011.3
20260505072307 17 222 3.2 3.2 0.00 0.00 0.00 67 1011.3
20260505071803 17 306 3.2 3.2 0.00 0.00 0.00 67 1011.3
20260505071300 17 212 3.2 3.2 0.00 0.00 0.00 65 1011.3
20260505070758 17 240 3.2 3.2 0.00 0.00 0.00 64 1011.3
20260505070254 17 228 3.2 3.2 0.00 0.00 0.00 65 1011.3
20260505065749 17 240 3.2 3.2 0.00 0.00 0.00 64 1011.0
20260505065246 17 210 3.2 3.2 0.00 0.00 0.00 65 1011.0
20260505064743 17 192 0.0 0.0 0.00 0.00 0.00 65 1011.0
20260505064241 17 116 3.2 3.2 0.00 0.00 0.00 65 1011.3
20260505063738 17 240 3.2 3.2 0.00 0.00 0.00 65 1011.3
20260505063234 17 264 1.6 1.6 0.00 0.00 0.00 65 1011.3
20260505062731 17 334 0.0 0.0 0.00 0.00 0.00 68 1011.3
20260505062229 17 275 3.2 3.2 0.00 0.00 0.00 66 1011.3
20260505061725 17 210 3.2 3.2 0.00 0.00 0.00 66 1011.3
20260505061224 17 234 3.2 3.2 0.00 0.00 0.00 65 1011.3
20260505060720 17 210 3.2 3.2 0.00 0.00 0.00 67 1011.3
20260505060217 16 222 3.2 3.2 0.00 0.00 0.00 68 1011.3
20260505055713 16 212 3.2 3.2 0.00 0.00 0.00 66 1011.3
20260505055209 16 222 3.2 3.2 0.00 0.00 0.00 69 1011.3
20260505054707 16 244 3.2 3.2 0.00 0.00 0.00 69 1011.3
20260505054205 16 222 0.0 0.0 0.00 0.00 0.00 70 1011.6
20260505053703 16 282 3.2 3.2 0.00 0.00 0.00 69 1011.6
20260505053158 16 180 0.0 0.0 0.00 0.00 0.00 73 1011.6
20260505052656 16 246 0.0 0.0 0.00 0.00 0.00 73 1011.6
20260505052153 16 235 0.0 0.0 0.00 0.00 0.00 70 1011.6
20260505051650 16 212 0.0 0.0 0.00 0.00 0.00 72 1011.6
20260505051148 16 228 0.0 0.0 0.00 0.00 0.00 71 1011.6
20260505050645 16 234 3.2 3.2 0.00 0.00 0.00 71 1011.6
20260505050143 16 264 0.0 0.0 0.00 0.00 0.00 71 1011.6
20260505041613 15 228 0.0 0.0 0.00 0.00 0.00 74 1011.6
20260505041110 15 234 0.0 0.0 0.00 0.00 0.00 77 1011.6
20260505040608 15 252 0.0 0.0 0.00 0.00 0.00 77 1011.6
20260505040105 15 246 0.0 0.0 0.00 0.00 0.00 74 1011.3
20260505035601 15 240 0.0 0.0 0.00 0.99 0.99 76 1011.3
20260505035057 15 222 0.0 0.0 0.00 0.99 0.99 77 1011.3
20260505034554 15 212 0.0 0.0 0.00 0.99 0.99 79 1011.3
20260505034051 15 269 0.0 0.0 0.00 0.99 0.99 77 1011.3
20260505033548 15 288 0.0 0.0 0.00 0.99 0.99 78 1011.3
20260505033046 15 246 0.0 0.0 0.00 0.99 0.99 77 1011.3
20260505032544 15 306 0.0 0.0 0.00 0.99 0.99 76 1011.3
20260505032040 15 306 0.0 0.0 0.00 0.99 0.99 76 1011.3
20260505031537 15 306 0.0 0.0 0.00 0.99 0.99 76 1011.3
20260505031033 16 222 0.0 0.0 0.00 0.99 0.99 72 1011.3
20260505030530 16 234 0.0 0.0 0.00 0.99 0.99 71 1011.3
20260505030026 16 234 0.0 0.0 0.00 0.99 0.99 70 1010.6
20260505025522 16 250 0.0 0.0 0.00 0.99 0.99 73 1010.6
20260505025022 16 258 0.0 0.0 0.00 0.99 0.99 69 1010.6
20260505024518 17 240 0.0 0.0 0.00 0.99 0.99 68 1010.3
20260505024015 17 228 0.0 0.0 0.00 0.99 0.99 67 1010.3
20260505023512 17 234 0.0 0.0 0.00 0.99 0.99 66 1010.3
20260505023010 17 270 0.0 0.0 0.00 0.99 0.99 67 1010.3
20260505022507 17 258 0.0 0.0 0.00 0.99 0.99 67 1010.3
20260505022004 17 246 0.0 0.0 0.00 0.99 0.99 69 1010.3
20260505021501 16 60 0.0 0.0 0.00 0.99 0.99 69 1010.3
20260505020956 16 240 0.0 0.0 0.00 0.99 0.99 72 1010.3
20260505020452 16 43 0.0 0.0 0.00 0.99 0.99 75 1010.3
20260505015949 16 277 0.0 0.0 0.00 0.99 0.99 73 1010.3
20260505015446 16 246 0.0 0.0 0.00 0.99 0.99 71 1010.3
20260505014943 16 206 0.0 0.0 0.00 0.99 0.99 73 1010.3
20260505014440 16 199 0.0 0.0 0.00 0.99 0.99 74 1010.3
20260505013937 17 222 0.0 0.0 0.00 0.99 0.99 72 1010.3
20260505013434 17 240 0.0 0.0 0.00 0.99 0.99 70 1010.3
20260505012932 17 228 0.0 0.0 0.00 0.99 0.99 70 1010.3
20260505012430 17 211 0.0 0.0 0.00 0.99 0.99 73 1010.3
20260505011926 17 213 0.0 0.0 0.00 0.99 0.99 72 1010.3
20260505011422 17 244 0.0 0.0 0.00 0.99 0.99 70 1010.3
20260505010919 17 228 0.0 0.0 0.00 0.99 0.99 69 1010.3
20260505010414 17 228 0.0 0.0 0.00 0.99 0.99 68 1010.3
20260505005911 18 228 0.0 0.0 0.00 0.99 0.99 67 1010.3
20260505005408 18 228 0.0 0.0 0.00 0.99 0.99 66 1010.3
20260505004905 18 228 0.0 0.0 0.00 0.99 0.99 65 1010.3
20260505004402 18 290 0.0 0.0 0.00 0.99 0.99 64 1009.9
20260505003859 19 216 0.0 0.0 0.00 0.99 0.99 63 1009.9
20260505003356 19 229 0.0 0.0 0.00 0.99 0.99 62 1009.9
20260505002852 19 252 0.0 0.0 0.00 0.99 0.99 64 1010.3
20260505002349 20 234 0.0 0.0 0.00 0.99 0.99 62 1010.3
20260505001847 20 284 0.0 0.0 0.00 0.99 0.99 64 1010.3
20260505001344 20 157 0.0 0.0 0.00 0.99 0.99 61 1010.3
20260505000841 21 210 0.0 0.0 0.00 0.99 0.99 60 1010.3
20260505000339 21 188 3.2 3.2 0.00 0.99 0.99 56 1010.3
20260504235835 21 216 3.2 3.2 0.00 0.99 0.99 55 1010.3
20260504235332 22 185 3.2 3.2 0.00 0.99 0.99 55 1010.3
20260504234829 22 284 3.2 3.2 0.00 0.99 0.99 56 1010.3
20260504234327 22 192 0.0 0.0 0.00 0.99 0.99 54 1010.6
20260504233823 22 198 3.2 3.2 0.00 0.99 0.99 54 1010.6
20260504233319 22 222 3.2 3.2 0.00 0.99 0.99 56 1010.6
20260504232815 22 185 3.2 3.2 0.00 0.99 0.99 55 1011.3
20260504232313 22 216 3.2 3.2 0.00 0.99 0.99 55 1011.3
20260504231810 22 179 0.0 0.0 0.00 0.99 0.99 54 1011.3
20260504231306 22 204 0.0 0.0 0.00 0.99 0.99 53 1011.3
20260504230802 23 210 3.2 3.2 0.00 0.99 0.99 51 1011.3
20260504230300 23 240 4.8 4.8 0.00 0.99 0.99 54 1011.3
20260504225759 23 228 3.2 3.2 0.00 0.99 0.99 53 1011.0
20260504225255 23 216 1.6 1.6 0.00 0.99 0.99 51 1011.0
20260504224752 23 217 0.0 0.0 0.00 0.99 0.99 53 1011.0
20260504224249 23 224 1.6 1.6 0.00 0.99 0.99 50 1011.3
20260504223745 22 192 3.2 3.2 0.00 0.99 0.99 52 1011.3
20260504223241 22 234 4.8 4.8 0.00 0.99 0.99 53 1011.3
20260504222738 23 192 3.2 3.2 0.00 0.99 0.99 51 1011.6
20260504222235 23 180 3.2 3.2 0.00 0.99 0.99 51 1011.6
20260504221733 23 222 1.6 1.6 0.00 0.99 0.99 49 1011.6
20260504221229 23 26 3.2 3.2 0.00 0.99 0.99 53 1011.6
20260504220726 23 312 3.2 3.2 0.00 0.99 0.99 51 1011.6
20260504220224 23 204 3.2 3.2 0.00 0.99 0.99 52 1011.6
20260504215720 23 173 3.2 3.2 0.00 0.99 0.99 51 1011.3
20260504215217 23 84 3.2 3.2 0.00 0.99 0.99 50 1011.3
20260504214713 23 210 3.2 3.2 0.00 0.99 0.99 49 1011.3
20260504214210 24 179 4.8 4.8 0.00 0.99 0.99 48 1011.6
20260504213706 23 240 3.2 3.2 0.00 0.99 0.99 50 1011.6
20260504213203 24 234 3.2 3.2 0.00 0.99 0.99 51 1011.6
20260504212700 24 188 4.8 4.8 0.00 0.99 0.99 49 1011.3
20260504212156 25 150 4.8 4.8 0.00 0.99 0.99 52 1011.3
20260504211654 25 216 3.2 3.2 0.00 0.99 0.99 48 1011.3
20260504211150 25 258 4.8 4.8 0.00 0.99 0.99 49 1011.3
20260504210648 25 205 3.2 3.2 0.00 0.99 0.99 46 1011.3
20260504210144 25 216 3.2 3.2 0.00 0.99 0.99 47 1011.3
20260504205642 25 198 4.8 4.8 0.00 0.99 0.99 46 1011.6
20260504205139 25 222 6.4 6.4 0.00 0.99 0.99 46 1011.6
20260504204637 26 290 4.8 4.8 0.00 0.99 0.99 45 1011.6
20260504204136 26 192 1.6 1.6 0.00 0.99 0.99 47 1011.6
20260504203634 25 204 3.2 3.2 0.00 0.99 0.99 46 1011.6
20260504203131 25 234 3.2 3.2 0.00 0.99 0.99 49 1011.6
20260504202626 25 198 3.2 3.2 0.00 0.99 0.99 47 1011.6
20260504202123 25 258 3.2 3.2 0.00 0.99 0.99 48 1011.6
20260504201620 25 234 3.2 3.2 0.00 0.99 0.99 49 1011.6
20260504201118 25 210 6.4 6.4 0.00 0.99 0.99 47 1011.6
20260504200615 25 216 4.8 4.8 0.00 0.99 0.99 51 1011.6
20260504200111 25 234 4.8 4.8 0.00 0.99 0.99 50 1011.6
20260504195607 25 187 3.2 3.2 0.00 0.99 0.99 49 1012.1
20260504195103 25 222 4.8 4.8 0.00 0.99 0.99 50 1012.1
20260504194600 25 198 3.2 3.2 0.00 0.99 0.99 52 1012.8
20260504194055 24 210 3.2 3.2 0.00 0.99 0.99 52 1012.8
20260504193552 24 198 4.8 4.8 0.00 0.99 0.99 48 1012.8
20260504193051 25 246 3.2 3.2 0.00 0.99 0.99 52 1012.8
20260504192549 24 18 3.2 3.2 0.00 0.99 0.99 50 1012.8
20260504192047 24 252 3.2 3.2 0.00 0.99 0.99 54 1012.8
20260504191544 23 222 3.2 3.2 0.00 0.99 0.99 56 1012.4
20260504191040 24 186 3.2 3.2 0.00 0.99 0.99 52 1012.4
20260504190537 24 180 4.8 4.8 0.00 0.99 0.99 51 1012.4
20260504190033 24 192 3.2 3.2 0.00 0.99 0.99 53 1012.8
20260504185530 24 270 3.2 3.2 0.00 0.99 0.99 55 1012.8
20260504185027 24 301 3.2 3.2 0.00 0.99 0.99 53 1012.8
20260504184522 23 228 3.2 3.2 0.00 0.99 0.99 55 1012.8
20260504184018 23 264 3.2 3.2 0.00 0.99 0.99 53 1012.8
20260504183515 23 166 3.2 3.2 0.00 0.99 0.99 54 1012.8
20260504183013 23 330 4.8 4.8 0.00 0.99 0.99 55 1012.8
20260504182509 23 36 4.8 4.8 0.00 0.99 0.99 53 1012.8
20260504182007 23 290 4.8 4.8 0.00 0.99 0.99 56 1012.8
20260504181504 23 246 3.2 3.2 0.00 0.99 0.99 55 1013.1
20260504181003 23 228 3.2 3.2 0.00 0.99 0.99 55 1013.1
20260504180501 22 216 3.2 3.2 0.00 0.99 0.99 57 1013.1
20260504175959 22 204 3.2 3.2 0.00 0.99 0.99 55 1012.8
20260504175456 22 78 3.2 3.2 0.00 0.99 0.99 57 1012.8
20260504174953 22 240 3.2 3.2 0.00 0.99 0.99 57 1012.8
20260504174450 22 234 3.2 3.2 0.00 0.99 0.99 57 1013.1
20260504173948 22 275 3.2 3.2 0.00 0.99 0.99 59 1013.1
20260504173444 22 192 3.2 3.2 0.00 0.99 0.99 58 1013.1
20260504172942 22 210 4.8 4.8 0.00 0.99 0.99 56 1013.1
20260504172437 22 168 4.8 4.8 0.00 0.99 0.99 58 1013.1
20260504171934 21 269 3.2 3.2 0.00 0.99 0.99 59 1013.1
20260504171432 21 306 3.2 3.2 0.00 0.99 0.99 56 1013.4
20260504170928 21 264 3.2 3.2 0.00 0.99 0.99 59 1013.4
20260504170425 21 300 3.2 3.2 0.00 0.99 0.99 57 1013.4
20260504160344 19 270 4.8 4.8 0.00 0.99 0.99 65 1013.8
20260504150808 14 180 3.2 3.2 0.00 0.99 0.99 85 1013.8
20260504150305 13 210 3.2 3.2 0.00 0.99 0.99 86 1013.8
20260504141235 12 246 3.2 3.2 0.00 0.97 0.97 90 1013.8
20260504140731 12 330 3.2 3.2 0.00 0.97 0.97 90 1013.8
20260504140227 12 216 3.2 3.2 0.00 0.97 0.97 87 1013.8